Regional Weather Roundup
Issued by NWS

Home | Current Version | Previous Version | Text Only | Print | Product List | Glossary Off
Versions: 1 2 3 4 5 6 7 8 9 10 11 12 13 14 15 16 17 18 19 20 21 22 23 24 25 26 27 28 29 30 31 32 33 34 35 36 37 38 39 40 41 42 43 44 45 46 47 48 49 50

000
ASUS43 KOAX 030010
RWRNE

WEATHER ROUNDUP FOR NEBRASKA
NATIONAL WEATHER SERVICE OMAHA NE
700 PM CDT TUE SEP 02 2014

NOTES: SATELLITE DATA IS BEING USED TO AUGMENT CLOUD COVER ABOVE
       12000 FEET.
       "FAIR" INDICATES FEW OR NO CLOUDS BELOW 12,000 FEET WITH NO
       SIGNIFICANT WEATHER AND/OR OBSTRUCTIONS TO VISIBILITY.

  * THESE STATIONS DO NOT REPORT WEATHER SUCH AS RAIN...SNOW OR FOG.

NEZ001>004-019>022-054>056-030100-
NEBRASKA PANHANDLE

CITY           SKY/WX    TMP DP  RH WIND       PRES   REMARKS
SCOTTSBLUFF    SUNNY     85  46  25 NE6       29.86F
6HR MIN TEMP:  81; 6HR MAX TEMP:  88;

ALLIANCE       SUNNY     84  43  23 S6        29.87F
6HR MIN TEMP:  77; 6HR MAX TEMP:  86;

CHADRON        SUNNY     84  42  22 NE5       29.82F
6HR MIN TEMP:  79; 6HR MAX TEMP:  86;

KIMBALL        SUNNY     83  40  21 S9        29.92F
SIDNEY         SUNNY     85  50  29 S12G21    29.92F
6HR MIN TEMP:  75; 6HR MAX TEMP:  87;

$$

NEZ057>060-069>072-079>082-030100-
SOUTHWEST NEBRASKA

CITY           SKY/WX    TMP DP  RH WIND       PRES   REMARKS
NORTH PLATTE   SUNNY     81  56  42 S9        29.88F
6HR MIN TEMP:  73; 6HR MAX TEMP:  83;

IMPERIAL       SUNNY     84  54  35 S17       29.90F
6HR MIN TEMP:  76; 6HR MAX TEMP:  86;

LEXINGTON      SUNNY     80  63  54 SE9       29.91S
MCCOOK         LGT RAIN  84  58  40 S15       29.90F
6HR MIN TEMP:  81; 6HR MAX TEMP:  88; 6HR PCP: TRACE;

OGALLALA       SUNNY     82  55  40 S10       29.88F
$$

NEZ005>010-023>029-035>040-094-030100-
NORTH CENTRAL NEBRASKA

CITY           SKY/WX    TMP DP  RH WIND       PRES   REMARKS
VALENTINE      PTSUNNY   81  60  48 S13       29.83F
6HR MIN TEMP:  77; 6HR MAX TEMP:  83;

AINSWORTH      SUNNY     78  61  56 S14       29.87F
BROKEN BOW     SUNNY     79  57  46 S17G24    29.90F
6HR MIN TEMP:  76; 6HR MAX TEMP:  82;

O`NEILL        SUNNY     78  59  52 SE9       29.90F
ORD            SUNNY     78  60  53 S9        29.89F
6HR MIN TEMP:  72; 6HR MAX TEMP:  81;

THEDFORD       SUNNY     82  61  48 S15       29.89F
$$

NEZ041-046>049-061>064-073>077-083>087-030100-
SOUTH CENTRAL NEBRASKA

CITY           SKY/WX    TMP DP  RH WIND       PRES   REMARKS
GRAND ISLAND   SUNNY     79  62  56 SE7       29.93F
6HR MIN TEMP:  77; 6HR MAX TEMP:  82;

AURORA         SUNNY     76  60  57 SE6       29.93F
HASTINGS       SUNNY     79  59  50 S9        29.92F
6HR MIN TEMP:  75; 6HR MAX TEMP:  81;

HEBRON         SUNNY     81  55  40 S3        29.92S
HOLDREGE       SUNNY     79  62  55 SE8       29.91F
KEARNEY *      SUNNY     79  63  57 SE8       29.93F
YORK           SUNNY     75 N/A N/A SE5       29.93F
$$

NEZ011>018-030>034-042>045-030100-
NORTHEAST NEBRASKA

CITY           SKY/WX    TMP DP  RH WIND       PRES   REMARKS
NORFOLK        SUNNY     75  58  55 S6        29.92F
6HR MIN TEMP:  72; 6HR MAX TEMP:  78;

ALBION         SUNNY     75  60  61 SE5       29.92F
BLAIR          CLEAR     77  61  56 CALM      29.91F
FREMONT        CLEAR     78  55  46 CALM      29.92F
TEKAMAH        CLEAR     77  62  59 CALM      29.91F
6HR MIN TEMP:  74; 6HR MAX TEMP:  79;

WAYNE          SUNNY     74  63  70 S3        29.92F
$$

NEZ050>053-065>068-078-088>093-030100-
SOUTHEAST NEBRASKA

CITY           SKY/WX    TMP DP  RH WIND       PRES   REMARKS
LINCOLN        SUNNY     81  58  45 CALM      29.93F
6HR MIN TEMP:  77; 6HR MAX TEMP:  83;

OMAHA EPPLEY   PTCLDY    78  59  51 N6        29.91F
6HR MIN TEMP:  74; 6HR MAX TEMP:  82;

BEATRICE       CLEAR     82  60  48 CALM      29.92S
FALLS CITY     CLEAR     82  66  58 E5        29.92S
6HR MIN TEMP:  80; 6HR MAX TEMP:  86;

NEBRASKA CITY  CLEAR     77  61  59 E5        29.93S
PLATTSMOUTH    CLEAR     77  60  55 CALM      29.92F
$$

NEZ044-045-051>053-067-030100-
OMAHA AREA

CITY           SKY/WX    TMP DP  RH WIND       PRES   REMARKS
OMAHA EPPLEY   PTCLDY    78  59  51 N6        29.91F
6HR MIN TEMP:  74; 6HR MAX TEMP:  82;

BLAIR          CLEAR     77  61  56 CALM      29.91F
FREMONT        CLEAR     78  55  46 CALM      29.92F
MILLARD        CLEAR     80  56  44 CALM      29.91S
OFFUTT AFB     CLEAR     78  61  55 CALM      29.91F
PLATTSMOUTH    CLEAR     77  60  55 CALM      29.92F
WAHOO          FAIR      78  55  44 CALM      29.92S
$$



USA.gov is the U.S. government's official web portal to all federal, state and local government web resources and services.